When you browse on this site, cookies collect data to enhance your experience and personalize the content and advertising you see.
Visit our Privacy Policy to learn more. By continuing to use the site, you agree to this use of cookies and data.
  • In Romania
  • List of Countries
  • For 7 days
  • Water Temperature
  • Satellite Maps
  • Weather Map
  • Weather Widgets
  • user-avatar
    Login

    Hourly Weather Novaya Vystavka

    Today, 25 April, Thursday

    Time Temperature Precipitation Wind Pressure Humidity
    00:00 +11°C° 0 mm 1 mps 757 mmHg 68%
    01:00 +10°C° 0 mm 1 mps 757 mmHg 68%
    02:00 +9°C° 0 mm 1 mps 757 mmHg 67%
    03:00 +9°C° 0 mm 1 mps 757 mmHg 67%
    04:00 +9°C° 0 mm 1 mps 757 mmHg 66%
    05:00 +9°C° 0 mm 1 mps 756 mmHg 65%
    06:00 +11°C° 0 mm 1 mps 756 mmHg 58%
    07:00 +13°C° 0 mm 1 mps 756 mmHg 51%
    08:00 +15°C° 0 mm 1 mps 756 mmHg 42%
    09:00 +17°C° 0 mm 2 mps 756 mmHg 38%
    10:00 +18°C° 0 mm 2 mps 756 mmHg 34%
    11:00 +20°C° 0 mm 2 mps 756 mmHg 29%
    12:00 +20°C° 0 mm 2 mps 756 mmHg 29%
    13:00 +21°C° 0 mm 2 mps 756 mmHg 28%
    14:00 +21°C° 0 mm 2 mps 755 mmHg 27%
    15:00 +21°C° 0 mm 2 mps 755 mmHg 29%
    16:00 +21°C° 0 mm 1 mps 755 mmHg 32%
    17:00 +21°C° 0 mm 1 mps 755 mmHg 34%
    18:00 +19°C° 0 mm 1 mps 755 mmHg 38%
    19:00 +16°C° 0 mm 1 mps 755 mmHg 43%
    20:00 +13°C° 0 mm 1 mps 755 mmHg 47%
    21:00 +13°C° 0 mm 1 mps 755 mmHg 52%
    22:00 +12°C° 0 mm 1 mps 755 mmHg 57%
    23:00 +11°C° 0 mm 1 mps 755 mmHg 62%

    Tomorrow, 26 April, Friday

    Time Temperature Precipitation Wind Pressure Humidity
    00:00 +10°C° 0 mm 1 mps 755 mmHg 66%
    01:00 +10°C° 0 mm 1 mps 755 mmHg 70%
    02:00 +9°C° 0 mm 1 mps 755 mmHg 75%
    03:00 +9°C° 0 mm 1 mps 755 mmHg 76%
    04:00 +9°C° 0 mm 1 mps 755 mmHg 77%
    05:00 +9°C° 0 mm 1 mps 755 mmHg 78%
    06:00 +11°C° 0 mm 1 mps 755 mmHg 72%
    07:00 +13°C° 0 mm 1 mps 755 mmHg 65%
    08:00 +15°C° 0 mm 2 mps 755 mmHg 59%
    09:00 +16°C° 0 mm 2 mps 755 mmHg 53%
    10:00 +18°C° 0 mm 2 mps 755 mmHg 47%
    11:00 +20°C° 0 mm 2 mps 754 mmHg 42%
    12:00 +22°C° 0 mm 1 mps 754 mmHg 39%
    13:00 +22°C° 0 mm 1 mps 753 mmHg 36%
    14:00 +23°C° 0 mm 1 mps 753 mmHg 33%
    15:00 +22°C° 0 mm 1 mps 753 mmHg 38%
    16:00 +21°C° 0 mm 1 mps 752 mmHg 43%
    17:00 +20°C° 0 mm 1 mps 752 mmHg 48%
    18:00 +18°C° 0.1 mm 1 mps 751 mmHg 54%
    19:00 +16°C° 0.1 mm 1 mps 751 mmHg 60%
    20:00 +14°C° 0.1 mm 2 mps 751 mmHg 67%
    21:00 +13°C° 0 mm 2 mps 751 mmHg 71%
    22:00 +13°C° 0 mm 1 mps 750 mmHg 75%
    23:00 +12°C° 0 mm 1 mps 750 mmHg 78%

    Day after tomorrow, 27 April, Saturday

    Time Temperature Precipitation Wind Pressure Humidity
    00:00 +12°C° 0.3 mm 1 mps 750 mmHg 81%
    01:00 +12°C° 0.3 mm 1 mps 749 mmHg 84%
    02:00 +11°C° 0.3 mm 1 mps 749 mmHg 86%
    03:00 +12°C° 0 mm 1 mps 749 mmHg 84%
    04:00 +12°C° 0 mm 1 mps 748 mmHg 83%
    05:00 +12°C° 0 mm 1 mps 748 mmHg 81%
    06:00 +13°C° 0 mm 1 mps 747 mmHg 76%
    07:00 +14°C° 0 mm 1 mps 747 mmHg 71%
    08:00 +15°C° 0 mm 1 mps 747 mmHg 67%
    09:00 +18°C° 0 mm 1 mps 747 mmHg 60%
    10:00 +18°C° 0 mm 2 mps 746 mmHg 53%
    11:00 +20°C° 0 mm 2 mps 746 mmHg 46%
    12:00 +20°C° 0 mm 2 mps 746 mmHg 44%
    13:00 +20°C° 0 mm 2 mps 745 mmHg 43%
    14:00 +21°C° 0 mm 2 mps 745 mmHg 41%
    15:00 +20°C° 0.1 mm 2 mps 745 mmHg 46%
    16:00 +19°C° 0.1 mm 2 mps 744 mmHg 50%
    17:00 +18°C° 0.1 mm 2 mps 744 mmHg 55%
    18:00 +16°C° 0.5 mm 2 mps 744 mmHg 64%
    19:00 +13°C° 0.5 mm 3 mps 745 mmHg 73%
    20:00 +12°C° 0.5 mm 3 mps 745 mmHg 82%
    21:00 +10°C° 0.4 mm 4 mps 745 mmHg 81%
    22:00 +8°C° 0.4 mm 4 mps 746 mmHg 80%
    23:00 +7°C° 0.4 mm 5 mps 746 mmHg 80%

    28 April, Sunday

    Time Temperature Precipitation Wind Pressure Humidity
    00:00 +6°C° 0 mm 5 mps 747 mmHg 78%
    01:00 +5°C° 0 mm 5 mps 747 mmHg 77%
    02:00 +3°C° 0 mm 5 mps 748 mmHg 76%
    03:00 +2°C° 0 mm 5 mps 749 mmHg 75%
    04:00 +1°C° 0 mm 5 mps 749 mmHg 73%
    05:00 0°C° 0 mm 4 mps 750 mmHg 71%
    06:00 0°C° 0 mm 4 mps 751 mmHg 67%
    07:00 +1°C° 0 mm 5 mps 751 mmHg 62%
    08:00 +1°C° 0 mm 5 mps 752 mmHg 58%
    09:00 +2°C° 0 mm 5 mps 752 mmHg 51%
    10:00 +3°C° 0 mm 5 mps 752 mmHg 44%
    11:00 +3°C° 0 mm 5 mps 753 mmHg 38%
    12:00 +5°C° 0 mm 5 mps 753 mmHg 36%
    13:00 +5°C° 0 mm 4 mps 753 mmHg 34%
    14:00 +6°C° 0 mm 4 mps 753 mmHg 33%
    15:00 +6°C° 0 mm 4 mps 753 mmHg 33%
    16:00 +5°C° 0 mm 4 mps 754 mmHg 33%
    17:00 +5°C° 0 mm 4 mps 754 mmHg 34%
    18:00 +4°C° 0 mm 3 mps 754 mmHg 39%
    19:00 +2°C° 0 mm 3 mps 755 mmHg 44%
    20:00 +2°C° 0 mm 2 mps 755 mmHg 49%
    21:00 +1°C° 0 mm 2 mps 756 mmHg 51%
    22:00 +1°C° 0 mm 2 mps 756 mmHg 53%
    23:00 -1°C° 0 mm 2 mps 756 mmHg 55%

    29 April, Monday

    Time Temperature Precipitation Wind Pressure Humidity
    00:00 -2°C° 0 mm 2 mps 757 mmHg 57%
    01:00 -2°C° 0 mm 2 mps 757 mmHg 60%
    02:00 -3°C° 0 mm 2 mps 757 mmHg 62%
    03:00 -2°C° 0 mm 2 mps 757 mmHg 61%
    04:00 -2°C° 0 mm 2 mps 758 mmHg 61%
    05:00 -2°C° 0 mm 2 mps 758 mmHg 60%
    06:00 -1°C° 0 mm 2 mps 758 mmHg 53%
    07:00 +2°C° 0 mm 2 mps 758 mmHg 47%
    08:00 +3°C° 0 mm 2 mps 758 mmHg 40%
    09:00 +5°C° 0 mm 2 mps 758 mmHg 37%
    10:00 +6°C° 0 mm 2 mps 757 mmHg 34%
    11:00 +7°C° 0 mm 2 mps 757 mmHg 31%
    12:00 +7°C° 0 mm 2 mps 757 mmHg 30%
    13:00 +8°C° 0 mm 2 mps 756 mmHg 29%
    14:00 +8°C° 0 mm 2 mps 756 mmHg 28%
    15:00 +8°C° 0 mm 2 mps 755 mmHg 29%
    16:00 +8°C° 0 mm 2 mps 755 mmHg 30%
    17:00 +9°C° 0 mm 1 mps 755 mmHg 31%
    18:00 +7°C° 0 mm 1 mps 755 mmHg 37%
    19:00 +4°C° 0 mm 0 mps 755 mmHg 42%
    20:00 +2°C° 0 mm 0 mps 755 mmHg 48%
    21:00 +2°C° 0 mm 0 mps 755 mmHg 50%
    22:00 +1°C° 0 mm 0 mps 755 mmHg 52%
    23:00 +1°C° 0 mm 0 mps 755 mmHg 54%

    30 April, Tuesday

    Time Temperature Precipitation Wind Pressure Humidity
    00:00 +1°C° 0 mm 1 mps 754 mmHg 57%
    01:00 +1°C° 0 mm 1 mps 754 mmHg 59%
    02:00 0°C° 0 mm 1 mps 754 mmHg 61%
    03:00 +1°C° 0 mm 1 mps 754 mmHg 59%
    04:00 +1°C° 0 mm 1 mps 754 mmHg 57%
    05:00 +2°C° 0 mm 1 mps 754 mmHg 56%
    06:00 +4°C° 0 mm 1 mps 753 mmHg 49%
    07:00 +6°C° 0 mm 1 mps 753 mmHg 43%
    08:00 +8°C° 0 mm 1 mps 753 mmHg 36%
    09:00 +8°C° 0 mm 2 mps 753 mmHg 35%
    10:00 +9°C° 0 mm 2 mps 752 mmHg 33%
    11:00 +10°C° 0 mm 3 mps 752 mmHg 32%
    12:00 +11°C° 0 mm 3 mps 751 mmHg 34%
    13:00 +11°C° 0 mm 3 mps 751 mmHg 36%
    14:00 +11°C° 0 mm 3 mps 751 mmHg 38%
    15:00 +11°C° 0 mm 3 mps 750 mmHg 43%
    16:00 +10°C° 0 mm 2 mps 750 mmHg 47%
    17:00 +10°C° 0 mm 2 mps 750 mmHg 51%
    18:00 +9°C° 0 mm 2 mps 750 mmHg 58%
    19:00 +8°C° 0 mm 1 mps 750 mmHg 64%
    20:00 +7°C° 0 mm 1 mps 750 mmHg 70%
    21:00 +6°C° 0 mm 1 mps 750 mmHg 71%
    22:00 +6°C° 0 mm 1 mps 750 mmHg 71%
    23:00 +5°C° 0 mm 1 mps 750 mmHg 72%
    Show more